Location: *
(2.7500°S, 66.6833°W)
Time: 02:30:57
(UTC+00:00)

Cosmos 2346 Rocket - Pass Details

Date: 24 May 2024
Orbit: 935 x 980 km, 82.9° (Epoch: 23 June)

Event Time Altitude Azimuth Distance (km) Brightness Sun altitude
Rises 23:02:58 0° 178° (S) 3,673 7.3 -10.1°
Reaches altitude 10° 23:05:30 10° 175° (S) 2,727 6.6 -10.7°
Maximum altitude 23:11:42 66° 93° (E) 1,061 4.5 -12.2°
Drops below altitude 10° 23:17:53 10° 12° (NNE) 2,720 7.0 -13.6°
Sets 23:20:24 0° 9° (N) 3,663 7.7 -14.2°
